sat.trackr.live / text

‹ back to catalog

STARLINK-33767

NORAD 63722 · 2025-087AB

PAYLOAD ACTIVE UNKNOWN

§ Identity

Operator
Country
US
Launch date
2025-04-28
Launch site
AFWTR
Launch vehicle
Mass (kg)
RCS (m²)

Purposes: comms

External: N2YO · Heavens-Above · Gunter

§ Orbital elements

Epoch: 2026-05-25T04:31:23.185920Z

Period
94.11 min
Inclination
53.1574°
Eccentricity
0.0000608
Mean motion
15.30202518 rev/d
Perigee alt
474.8 km
Apogee alt
475.6 km
Semi-major
6,853.3 km
B*
2.4890e-4
RAAN
224.1014°
Arg perigee
118.6951°
Mean anomaly
241.4111°
Rev number
6,091

§ Raw data

STARLINK-337671 63722U 25087AB  26145.18846280  .00007020  00000+0  24890-3 0  99912 63722  53.1574 224.1014 0000608 118.6951 241.4111 15.30202518 60913

JSON: /api/v1/satellites/63722 · /tle

For live sub-satellite position, see the globe view (requires WebGL).

§ Visibility from observer

Set your observer location to see the next 7 days of passes ≥ 10°. The values pass through the URL so the page stays shareable.

No JS? Fill the form by hand. The geolocation button needs JavaScript.